Content
SEND FEEDBACK

Daily
Averages
Monthly
Summary
United States of America

ADELPHIA, NEW JERSEY


Home > North America > United States > New Jersey
Elevation: 49 meters     Latitude: 40 16N     Longitude: 074 15W

WEATHER
 
SELECT A DAY
Number of Records: 446,676;   Date Range: 1/1/95 - 7/7/14
 
SHARE

PRINT THIS DATA

[ ← Previous Day ]
WEATHER ALMANAC - 31 JANUARY, 2013
[ Next Day → ]
[ °F ]   °C
Weather ElementAverageHighLow
Temperature4.1 °C16 °C (1:55 am) (12:35 am)
Dewpoint-9.2 °C11 °C (1:55 am)-21 °C (10:55 pm)
Humidity37.6 %77 % (3:55 am)17 % (3:35 pm)
Barometer998 hPa1010.2 hPa (11:35 pm)986.5 hPa (3:35 am)
Wind Speed33 km/h51.8 km/h (1:35 am)
Wind Gust83.4 km/h (2:35 am)
Weather ElementAverage
Visibility15.3 km
Wind DirectionWSW (254.6 °)

Weather ElementTotal
Precipitation22.61 mm
Heating Degree Days19.2 (Base 18.3)
Averaged from 70 records on 31 January, 2013
WEATHER CONDITIONS BREAKOUT
WIND DIRECTION BREAKOUT
WEATHER BY HOUR - 31 JANUARY, 2013
[ °F ]   °C
Local TimeTemperatureDewpointHumidityBarometerVisibilityWind DirectionWind SpeedGust SpeedPrecipitationEventsConditions
12:35 AM-17.8 °C-17.8 °C994.2 hPa14.5 kmSSW (200°)48.1 km/h76 km/h0.25 mmOvercast
12:55 AM-17.8 °C-17.8 °C993.6 hPa16.1 kmSSW (200°)42.6 km/h79.7 km/h0.25 mmOvercast
1:15 AM-17.8 °C-17.8 °C992.6 hPa16.1 kmSouth (190°)40.7 km/h74 km/hOvercast
1:35 AM-17.8 °C-17.8 °C991.9 hPa11.3 kmSSW (200°)51.8 km/h76 km/hOvercast
1:55 AM16 °C11 °C72 %990.9 hPa16.1 kmSouth (190°)38.9 km/h64.9 km/h0.25 mmOvercast
2:15 AM16 °C10 °C68 %990.2 hPa11.3 kmSouth (180°)46.3 km/h64.9 km/h0.51 mmOvercast
2:35 AM-17.8 °C-17.8 °C988.8 hPa11.3 kmSouth (180°)51.8 km/h83.4 km/h0.76 mmOvercast
2:55 AM16 °C11 °C72 %988.5 hPa12.9 kmSouth (180°)37 km/h66.6 km/h1.02 mmOvercast
3:15 AM15 °C10 °C72 %987.1 hPa9.7 kmSouth (180°)37 km/h53.8 km/h0.51 mmOvercast
3:35 AM15 °C10 °C72 %986.5 hPa6.4 kmSouth (190°)46.3 km/h70.3 km/h2.29 mmOvercast
3:55 AM15 °C11 °C77 %986.5 hPa6.4 kmSSW (200°)31.5 km/h74 km/h6.1 mmOvercast
4:15 AM16 °C11 °C72 %987.5 hPa8 kmSSW (210°)38.9 km/h74 km/h1.27 mmOvercast
4:35 AM16 °C11 °C72 %987.8 hPa14.5 kmSW (230°)20.4 km/h59.2 km/h1.52 mmOvercast
4:55 AM16 °C11 °C72 %988.1 hPa14.5 kmSW (230°)22.2 km/h38.9 km/h3.3 mmOvercast
5:15 AM14 °C9 °C72 %987.5 hPa16.1 kmSW (220°)22.2 km/h35.2 km/h1.02 mmOvercast
5:35 AM14 °C8 °C67 %986.8 hPa16.1 kmSSW (200°)22.2 km/h33.3 km/h1.52 mmOvercast
5:55 AM14 °C8 °C67 %986.5 hPa16.1 kmSSW (200°)25.9 km/h46.3 km/h1.52 mmOvercast
6:15 AM14 °C7 °C63 %986.5 hPa16.1 kmSW (220°)29.6 km/h51.8 km/hMostly Cloudy
6:35 AM14 °C7 °C63 %986.8 hPa16.1 kmSW (220°)29.6 km/h50.1 km/hMostly Cloudy
6:55 AM12 °C4 °C58 %989.2 hPa14.5 kmWest (270°)38.9 km/h72.3 km/h0.51 mmMostly Cloudy
7:15 AM9 °C1 °C58 %990.2 hPa16.1 kmWest (280°)46.3 km/h59.2 km/hOvercast
7:35 AM8 °C0 °C57 %990.9 hPa16.1 kmWest (280°)27.8 km/h51.8 km/hMostly Cloudy
7:55 AM8 °C-1 °C53 %991.5 hPa16.1 kmWest (280°)22.2 km/h35.2 km/hOvercast
8:15 AM9 °C-3 °C43 %992.2 hPa16.1 kmWest (280°)38.9 km/h51.8 km/hOvercast
8:35 AM9 °C-6 °C34 %992.9 hPa16.1 kmWest (280°)35.2 km/h61.2 km/hOvercast
8:55 AM8 °C-8 °C32 %993.9 hPa16.1 kmWest (270°)35.2 km/h61.2 km/hMostly Cloudy
9:15 AM8 °C-6 °C37 %994.6 hPa16.1 kmWNW (290°)31.5 km/h50.1 km/hMostly Cloudy
9:35 AM8 °C-8 °C32 %995.3 hPa16.1 kmWest (280°)37 km/h59.2 km/hOvercast
9:55 AM7 °C-9 °C31 %995.9 hPa16.1 kmWest (280°)37 km/h55.5 km/hMostly Cloudy
10:15 AM7 °C-11 °C27 %996.3 hPa16.1 kmWest (270°)35.2 km/h61.2 km/hPartly Cloudy
10:35 AM-17.8 °C-17.8 °C996.6 hPa16.1 kmWest (280°)51.8 km/h68.6 km/hPartly Cloudy
10:55 AM7 °C-8 °C34 %997.3 hPa16.1 kmWest (270°)29.6 km/h66.6 km/hPartly Cloudy
11:15 AM-17.8 °C-17.8 °C997.3 hPa16.1 kmWest (280°)33.3 km/h61.2 km/hMostly Cloudy
11:35 AM7 °C-11 °C27 %998 hPa16.1 kmWest (280°)44.4 km/h61.2 km/hMostly Cloudy
11:55 AM7 °C-12 °C25 %998 hPa16.1 kmWest (280°)33.3 km/h53.8 km/hMostly Cloudy
12:15 PM7 °C-11 °C27 %998.3 hPa16.1 kmWest (270°)29.6 km/h55.5 km/hMostly Cloudy
12:35 PM-17.8 °C-17.8 °C998.3 hPa16.1 kmWest (280°)40.7 km/h59.2 km/hScattered Clouds
12:55 PM6 °C-13 °C25 %998.6 hPa16.1 kmWest (280°)44.4 km/h61.2 km/hScattered Clouds
1:15 PM8 °C-12 °C23 %998.6 hPa16.1 kmWest (260°)38.9 km/h55.5 km/hMostly Cloudy
1:35 PM7 °C-12 °C25 %998.6 hPa16.1 kmWest (270°)33.3 km/h50.1 km/hMostly Cloudy
1:55 PM7 °C-12 °C25 %999.7 hPa16.1 kmWest (280°)29.6 km/h55.5 km/hMostly Cloudy
2:15 PM7 °C-11 °C27 %999.3 hPa16.1 kmWest (270°)31.5 km/h48.1 km/hMostly Cloudy
2:35 PM7 °C-13 °C23 %1000 hPa16.1 kmWest (260°)29.6 km/h50.1 km/hMostly Cloudy
2:55 PM7 °C-15 °C20 %1000.3 hPa16.1 kmWNW (290°)37 km/h53.8 km/hScattered Clouds
3:15 PM7 °C-16 °C18 %1000.3 hPa16.1 kmWest (260°)35.2 km/h53.8 km/hMostly Cloudy
3:35 PM7 °C-17 °C17 %1001 hPa16.1 kmWest (260°)38.9 km/h57.5 km/hScattered Clouds
3:55 PM6 °C-17 °C18 %1001.4 hPa16.1 kmWest (280°)35.2 km/h57.5 km/hMostly Cloudy
4:15 PM5 °C-17 °C19 %1002.4 hPa16.1 kmWest (270°)27.8 km/h55.5 km/hPartly Cloudy
4:35 PM4 °C-18 °C19 %1002.7 hPa16.1 kmWest (270°)46.3 km/h64.9 km/hPartly Cloudy
4:55 PM4 °C-19 °C17 %1003.4 hPa16.1 kmWest (270°)27.8 km/h59.2 km/hPartly Cloudy
5:15 PM3 °C-18 °C20 %1004.1 hPa16.1 kmWest (280°)25.9 km/h51.8 km/hScattered Clouds
5:35 PM3 °C-19 °C19 %1004.7 hPa16.1 kmWest (280°)27.8 km/h44.4 km/hPartly Cloudy
5:55 PM2 °C-18 °C22 %1005.4 hPa16.1 kmWest (270°)27.8 km/h42.6 km/hMostly Cloudy
6:15 PM2 °C-13 °C33 %1005.8 hPa16.1 kmWest (270°)35.2 km/h51.8 km/hPartly Cloudy
6:35 PM2 °C-17 °C24 %1006.4 hPa16.1 kmWest (270°)24.1 km/h35.2 km/hClear
6:55 PM2 °C-17 °C24 %1006.8 hPa16.1 kmWest (280°)24.1 km/h37 km/hScattered Clouds
7:15 PM2 °C-16 °C26 %1007.1 hPa16.1 kmWest (280°)27.8 km/h33.3 km/hPartly Cloudy
7:35 PM1 °C-15 °C30 %1007.1 hPa16.1 kmWest (280°)24.1 km/hClear
7:55 PM1 °C-14 °C32 %1007.1 hPa16.1 kmWest (270°)24.1 km/h35.2 km/hPartly Cloudy
8:15 PM1 °C-14 °C32 %1007.8 hPa16.1 kmWest (260°)33.3 km/h44.4 km/hScattered Clouds
8:35 PM1 °C-17 °C25 %1007.8 hPa16.1 kmWest (260°)27.8 km/h53.8 km/hScattered Clouds
9:15 PM0 °C-17 °C27 %1008.5 hPa16.1 kmWest (280°)27.8 km/h37 km/hPartly Cloudy
9:35 PM0 °C-17 °C27 %1008.8 hPa16.1 kmWest (280°)24.1 km/h42.6 km/hScattered Clouds
9:55 PM0 °C-18 °C25 %1008.8 hPa16.1 kmWest (280°)27.8 km/h48.1 km/hScattered Clouds
10:15 PM0 °C-19 °C23 %1009.1 hPa16.1 kmWNW (290°)25.9 km/h42.6 km/hOvercast
10:35 PM-1 °C-19 °C25 %1009.5 hPa16.1 kmWest (270°)25.9 km/h51.8 km/hOvercast
10:55 PM-1 °C-21 °C21 %1009.8 hPa16.1 kmWest (270°)27.8 km/h46.3 km/hScattered Clouds
11:15 PM-1 °C-21 °C21 %1009.8 hPa16.1 kmWest (280°)24.1 km/h42.6 km/hClear
11:35 PM-1 °C-21 °C21 %1010.2 hPa16.1 kmWest (270°)24.1 km/h42.6 km/hClear
11:55 PM-2 °C-21 °C23 %1010.2 hPa16.1 kmWest (260°)16.7 km/h31.5 km/hClear
Hourly data recorded from KBLM, located 0 kilometers away from Adelphia, New Jersey







STORIES FROM OUR PARTNERS